Youngstown, OH

10:08 AM EST on December 16, 2017 (GMT -0500)
Youngstown-Warren Regional

Weather History for KYNG - May, 2014

Change the Weather History Date:

Monday, May 5, 2014

  Actual Average Record
Temperature  
Mean Temperature 47 °F 55 °F  
Max Temperature 59 °F 66 °F 90 °F (1949)
Min Temperature 34 °F 44 °F 30 °F (2005)
Degree Days  
Heating Degree Days 18 11  
Month to date heating degree days 72 56  
Since 1 July heating degree days 6694 6083  
Cooling Degree Days 0 0  
Month to date cooling degree days 0 0  
Year to date cooling degree days 0 9  
Moisture  
Dew Point 34 °F    
Average Humidity 63    
Maximum Humidity 92    
Minimum Humidity 33    
Precipitation  
Precipitation 0.02 in 0.11 in 0.84 in (1948)
Month to date precipitation 0.10 0.55  
Year to date precipitation 11.64 11.55  
Snow  
Snow 0.00 in 0.00 in - ()
Month to date snowfall 0.0 0.0  
Since 1 July snowfall 90.1 62.7  
Snow Depth 0.00 in    
Sea Level Pressure  
Sea Level Pressure 30.03 in    
Wind  
Wind Speed 5 mph (NNE)    
Max Wind Speed 17 mph    
Max Gust Speed 24 mph    
Visibility 10 miles    
Events Rain    
T = Trace of Precipitation, MM = Missing Value Source: NWS Daily Summary

Daily Weather History Graph

Daily Weather History Graph

Search for Another Location

Airport or City:

Trip Planner

Search our weather history database for the weather conditions in past years. The results will help you decide how hot, cold, wet, or windy it might be!

Date:

Astronomy

May. 05, 2014 Rise Set
Actual Time 6:15 AM EDT 8:24 PM EDT
Civil Twilight 5:44 AM EDT 8:54 PM EDT
Nautical Twilight 5:07 AM EDT 9:32 PM EDT
Astronomical Twilight 4:26 AM EDT 10:13 PM EDT
Moon 11:33 AM EDT (5/5) 1:07 AM EDT (5/5)
Length of Visible Light 15h 09m
Length of Day
14h 09m
Waxing Crescent, 36% of the Moon is Illuminated
May 5
Waxing Crescent
May 6
First Quarter
May 14
Full
May 21
Last Quarter
May 28
New

Hourly Weather History & Observations

Time (EDT) Temp. Windchill Dew Point Humidity Pressure Visibility Wind Dir Wind Speed Gust Speed Precip Events Conditions
12:51 AM 37.0 °F - 33.1 °F 86% 30.10 in 10.0 mi Calm Calm - N/A   Partly Cloudy
1:51 AM 36.0 °F - 33.1 °F 89% 30.09 in 10.0 mi Calm Calm - N/A   Partly Cloudy
2:51 AM 36.0 °F - 33.1 °F 89% 30.07 in 10.0 mi Calm Calm - N/A   Partly Cloudy
3:51 AM 35.1 °F - 32.0 °F 89% 30.06 in 10.0 mi Calm Calm - N/A   Clear
4:51 AM 37.4 °F 32.1 °F 33.8 °F 87% 30.04 in 10.0 mi North 6.9 mph - N/A   Partly Cloudy
5:51 AM 37.0 °F 31.6 °F 33.1 °F 86% 30.05 in 10.0 mi NNE 6.9 mph - N/A   Partly Cloudy
6:51 AM 37.0 °F 33.3 °F 33.1 °F 86% 30.07 in 10.0 mi NNE 4.6 mph - N/A   Mostly Cloudy
7:51 AM 41.0 °F 39.0 °F 35.6 °F 81% 30.08 in 10.0 mi WSW 3.5 mph - N/A   Mostly Cloudy
8:51 AM 46.0 °F 43.1 °F 35.1 °F 66% 30.09 in 10.0 mi NNE 5.8 mph - N/A   Scattered Clouds
9:51 AM 48.9 °F - 34.0 °F 56% 30.09 in 10.0 mi Calm Calm - N/A   Mostly Cloudy
10:51 AM 53.1 °F - 33.1 °F 47% 30.05 in 10.0 mi SSE 3.5 mph - N/A   Overcast
11:51 AM 55.0 °F - 30.9 °F 40% 30.05 in 10.0 mi SE 6.9 mph - N/A   Overcast
12:51 PM 57.0 °F - 30.0 °F 36% 30.05 in 10.0 mi East 3.5 mph - N/A   Overcast
1:51 PM 59.0 °F - 30.9 °F 35% 30.02 in 10.0 mi North 3.5 mph - N/A   Overcast
2:51 PM 55.9 °F - 30.9 °F 39% 30.02 in 10.0 mi NNE 8.1 mph - N/A   Overcast
3:51 PM 53.1 °F - 28.9 °F 40% 30.01 in 10.0 mi NE 15.0 mph 24.2 mph 0.00 in Rain Light Rain
4:51 PM 50.0 °F - 39.0 °F 66% 29.99 in 10.0 mi ENE 6.9 mph - 0.01 in Rain Light Rain
5:51 PM 51.1 °F - 37.0 °F 59% 29.96 in 10.0 mi ENE 4.6 mph - 0.01 in   Overcast
6:51 PM 53.1 °F - 37.0 °F 55% 29.96 in 10.0 mi Variable 4.6 mph - N/A   Overcast
7:51 PM 52.0 °F - 37.9 °F 59% 29.96 in 10.0 mi NNE 6.9 mph - N/A   Overcast
8:51 PM 51.1 °F - 37.0 °F 59% 29.95 in 10.0 mi North 3.5 mph - N/A   Mostly Cloudy
9:51 PM 48.9 °F - 37.0 °F 64% 29.96 in 10.0 mi NNW 3.5 mph - N/A   Mostly Cloudy
10:51 PM 48.9 °F - 36.0 °F 61% 29.96 in 10.0 mi NNE 5.8 mph - N/A   Mostly Cloudy
11:51 PM 46.9 °F - 35.1 °F 63% 29.96 in 10.0 mi North 5.8 mph - N/A   Mostly Cloudy